Location: Spruce Knob
(38.6995°N, 79.5330°W)
Time: 21:25:49
(UTC-04:00)

A-11 Canister half - Pass Details

Date: 31 January 2022
Orbit: 1513 x 1686 km, 47.2° (Epoch: 24 May)

Event Time Altitude Azimuth Distance (km) Brightness Sun altitude
Rises 15:49:35 0° 246° (WSW) 4,820 13.1 17.4°
Reaches altitude 10° 15:52:44 10° 248° (WSW) 3,812 12.8 17.0°
Maximum altitude 16:02:25 76° 334° (NNW) 1,603 9.4 15.5°
Drops below altitude 10° 16:11:47 10° 60° (ENE) 3,698 10.4 14.0°
Sets 16:14:49 0° 62° (ENE) 4,669 10.9 13.5°
